Location: The Saddle
(36.8333°N, 80.3417°W)
Time: 07:00:14
(UTC-05:00)

A-11 Canister half - Pass Details

Date: 12 December 2023
Orbit: 1526 x 1682 km, 47.3° (Epoch: 27 February)

Event Time Altitude Azimuth Distance (km) Brightness Sun altitude
Rises 16:23:41 0° 222° (SW) 4,864 13.6 6.2°
Reaches altitude 10° 16:26:49 10° 220° (SW) 3,895 13.0 5.7°
Maximum altitude 16:36:44 68° 140° (SE) 1,778 9.5 4.1°
Drops below altitude 10° 16:46:47 10° 60° (ENE) 3,943 10.5 2.4°
Sets 16:49:58 0° 58° (ENE) 4,927 10.9 1.8°
